TimeMDT,TemperatureF,Dew PointF,Humidity,Sea Level PressureIn,VisibilityMPH,Wind Direction,Wind SpeedMPH,Gust SpeedMPH,PrecipitationIn,Events,Conditions,WindDirDegrees,DateUTC
12:15 AM,26.6,14.0,59,29.68,10.0,NE,8.1,-,N/A,,Overcast,40,2013-04-09 06:15:00
12:35 AM,28.4,12.2,51,29.69,10.0,NE,10.4,-,N/A,,Overcast,40,2013-04-09 06:35:00
12:55 AM,26.6,10.4,51,29.69,10.0,NNE,16.1,21.9,N/A,,Overcast,30,2013-04-09 06:55:00
1:15 AM,26.6,10.4,51,29.71,10.0,NE,17.3,21.9,N/A,,Overcast,40,2013-04-09 07:15:00
1:35 AM,26.6,10.4,51,29.72,10.0,NNE,17.3,-,N/A,,Overcast,30,2013-04-09 07:35:00
1:55 AM,26.6,10.4,51,29.74,10.0,NE,11.5,-,N/A,,Overcast,40,2013-04-09 07:55:00
2:15 AM,26.6,10.4,51,29.75,10.0,NE,11.5,-,N/A,,Overcast,40,2013-04-09 08:15:00
2:35 AM,26.6,10.4,51,29.74,10.0,NE,11.5,23.0,N/A,,Overcast,50,2013-04-09 08:35:00
2:55 AM,26.6,8.6,47,29.74,10.0,NE,10.4,-,N/A,,Overcast,40,2013-04-09 08:55:00
3:15 AM,24.8,8.6,50,29.74,10.0,NNE,12.7,-,N/A,,Overcast,30,2013-04-09 09:15:00
3:35 AM,26.6,8.6,47,29.74,10.0,NE,11.5,16.1,N/A,,Overcast,40,2013-04-09 09:35:00
3:55 AM,26.6,8.6,47,29.75,10.0,NE,6.9,-,N/A,,Overcast,40,2013-04-09 09:55:00
4:15 AM,26.6,8.6,47,29.75,10.0,NE,6.9,-,N/A,,Overcast,40,2013-04-09 10:15:00
4:35 AM,26.6,8.6,47,29.76,10.0,NNE,4.6,-,N/A,,Overcast,20,2013-04-09 10:35:00
4:55 AM,26.6,8.6,47,29.77,10.0,NNE,5.8,-,N/A,,Overcast,20,2013-04-09 10:55:00
5:15 AM,26.6,8.6,47,29.78,10.0,NNE,5.8,10.4,N/A,,Overcast,20,2013-04-09 11:15:00
5:35 AM,26.6,6.8,43,29.79,10.0,ENE,6.9,-,N/A,,Overcast,60,2013-04-09 11:35:00
5:55 AM,24.8,5.0,43,29.79,10.0,NE,9.2,-,N/A,,Overcast,40,2013-04-09 11:55:00
6:15 AM,23.0,5.0,46,29.80,10.0,NNE,12.7,17.3,N/A,,Overcast,30,2013-04-09 12:15:00
6:35 AM,23.0,5.0,46,29.82,10.0,NE,9.2,-,N/A,,Overcast,40,2013-04-09 12:35:00
6:55 AM,23.0,5.0,46,29.83,10.0,NE,18.4,23.0,N/A,,Overcast,50,2013-04-09 12:55:00
7:15 AM,23.0,8.6,54,29.85,10.0,ENE,21.9,28.8,N/A,,Overcast,60,2013-04-09 13:15:00
7:35 AM,23.0,10.4,59,29.86,10.0,NNE,17.3,21.9,N/A,,Overcast,30,2013-04-09 13:35:00
7:55 AM,23.0,6.8,50,29.87,10.0,NNE,13.8,-,N/A,,Overcast,30,2013-04-09 13:55:00
8:15 AM,24.8,5.0,43,29.88,10.0,NE,10.4,-,N/A,,Overcast,40,2013-04-09 14:15:00
8:35 AM,24.8,3.2,40,29.89,10.0,NE,8.1,-,N/A,,Overcast,50,2013-04-09 14:35:00
8:55 AM,24.8,3.2,40,29.90,10.0,NE,12.7,-,N/A,,Overcast,40,2013-04-09 14:55:00
9:15 AM,24.8,6.8,46,29.90,10.0,NE,6.9,-,N/A,,Overcast,40,2013-04-09 15:15:00
9:35 AM,26.6,5.0,40,29.90,10.0,NE,10.4,-,N/A,,Overcast,40,2013-04-09 15:35:00
9:55 AM,28.4,5.0,37,29.90,10.0,NE,8.1,16.1,N/A,,Overcast,50,2013-04-09 15:55:00
10:15 AM,28.4,5.0,37,29.91,10.0,NE,5.8,16.1,N/A,,Overcast,40,2013-04-09 16:15:00
10:35 AM,30.2,5.0,34,29.91,10.0,NNE,10.4,19.6,N/A,,Mostly Cloudy,30,2013-04-09 16:35:00
10:55 AM,30.2,8.6,40,29.90,10.0,NE,13.8,23.0,N/A,,Scattered Clouds,50,2013-04-09 16:55:00
11:15 AM,32.0,8.6,38,29.91,10.0,NNE,13.8,21.9,N/A,,Clear,30,2013-04-09 17:15:00
11:35 AM,32.0,8.6,38,29.92,10.0,ENE,15.0,20.7,N/A,,Scattered Clouds,60,2013-04-09 17:35:00
11:55 AM,32.0,8.6,38,29.93,10.0,NE,13.8,18.4,N/A,,Scattered Clouds,50,2013-04-09 17:55:00
12:15 PM,32.0,8.6,38,29.93,10.0,ENE,13.8,17.3,N/A,,Mostly Cloudy,70,2013-04-09 18:15:00
12:35 PM,32.0,8.6,38,29.93,10.0,ENE,11.5,17.3,N/A,,Overcast,60,2013-04-09 18:35:00
12:55 PM,33.8,10.4,38,29.93,10.0,NE,13.8,21.9,N/A,,Overcast,50,2013-04-09 18:55:00
1:15 PM,32.0,10.4,41,29.92,10.0,NNE,15.0,19.6,N/A,,Overcast,30,2013-04-09 19:15:00
1:35 PM,32.0,8.6,38,29.92,10.0,NE,13.8,18.4,N/A,,Mostly Cloudy,40,2013-04-09 19:35:00
1:55 PM,33.8,10.4,38,29.92,10.0,East,9.2,-,N/A,,Scattered Clouds,90,2013-04-09 19:55:00
2:15 PM,33.8,8.6,35,29.91,10.0,NE,11.5,-,N/A,,Clear,50,2013-04-09 20:15:00
2:35 PM,35.6,10.4,35,29.92,10.0,ENE,6.9,23.0,N/A,,Clear,60,2013-04-09 20:35:00
2:55 PM,33.8,10.4,38,29.92,10.0,ENE,13.8,20.7,N/A,,Scattered Clouds,70,2013-04-09 20:55:00
3:15 PM,33.8,17.6,52,29.92,10.0,SE,15.0,20.7,N/A,,Mostly Cloudy,130,2013-04-09 21:15:00
3:35 PM,32.0,15.8,51,29.93,10.0,East,4.6,-,N/A,,Mostly Cloudy,90,2013-04-09 21:35:00
3:55 PM,32.0,15.8,51,29.93,10.0,East,12.7,19.6,N/A,,Overcast,80,2013-04-09 21:55:00
4:15 PM,33.8,12.2,41,29.94,10.0,ENE,11.5,-,N/A,,Overcast,60,2013-04-09 22:15:00
4:35 PM,32.0,10.4,41,29.95,10.0,ENE,11.5,-,N/A,,Overcast,70,2013-04-09 22:35:00
4:55 PM,32.0,14.0,48,29.95,10.0,ESE,11.5,-,N/A,,Overcast,120,2013-04-09 22:55:00
5:15 PM,32.0,15.8,51,29.97,10.0,ESE,12.7,-,N/A,,Overcast,120,2013-04-09 23:15:00
5:35 PM,32.0,12.2,44,29.98,10.0,East,15.0,18.4,N/A,,Overcast,80,2013-04-09 23:35:00
5:55 PM,32.0,14.0,48,29.98,10.0,ESE,10.4,-,N/A,,Overcast,120,2013-04-09 23:55:00
6:15 PM,30.2,10.4,44,29.99,10.0,ESE,8.1,-,N/A,,Overcast,120,2013-04-10 00:15:00
6:35 PM,32.0,10.4,41,29.99,10.0,ENE,10.4,-,N/A,,Overcast,70,2013-04-10 00:35:00
6:55 PM,32.0,12.2,44,29.99,10.0,NE,9.2,-,N/A,,Overcast,50,2013-04-10 00:55:00
7:15 PM,32.0,14.0,48,30.00,10.0,East,4.6,9.2,N/A,,Overcast,90,2013-04-10 01:15:00
7:35 PM,30.2,12.2,47,30.01,10.0,East,8.1,-,N/A,,Overcast,90,2013-04-10 01:35:00
7:55 PM,28.4,21.2,74,30.01,10.0,South,16.1,23.0,N/A,,Overcast,180,2013-04-10 01:55:00
8:15 PM,26.6,23.0,86,30.02,10.0,South,12.7,16.1,N/A,,Overcast,190,2013-04-10 02:15:00
8:55 PM,26.6,23.0,86,30.05,10.0,SSW,6.9,-,N/A,,Overcast,210,2013-04-10 02:55:00
9:15 PM,26.6,21.2,80,30.05,10.0,SW,6.9,-,N/A,,Overcast,220,2013-04-10 03:15:00
9:35 PM,24.8,21.2,86,30.06,10.0,SW,5.8,-,N/A,,Scattered Clouds,220,2013-04-10 03:35:00
9:55 PM,23.0,21.2,93,30.06,10.0,SW,6.9,-,N/A,,Clear,230,2013-04-10 03:55:00
10:15 PM,23.0,21.2,93,30.07,10.0,WSW,8.1,-,N/A,,Mostly Cloudy,240,2013-04-10 04:15:00
10:35 PM,23.0,21.2,93,30.07,10.0,SW,3.5,-,N/A,,Overcast,230,2013-04-10 04:35:00
11:15 PM,21.2,19.4,93,30.08,10.0,Calm,Calm,-,N/A,,Mostly Cloudy,0,2013-04-10 05:15:00
11:35 PM,21.2,19.4,93,30.08,10.0,SSW,4.6,-,N/A,,Mostly Cloudy,200,2013-04-10 05:35:00
11:55 PM,21.2,19.4,93,30.08,10.0,South,3.5,-,N/A,,Overcast,190,2013-04-10 05:55:00